Ithaca, NY

7:42 PM EST on December 12, 2017 (GMT -0500)
Tompkins County

Weather History for KITH - November, 2011

Change the Weather History Date:

Wednesday, November 16, 2011

  Actual Average Record
Temperature  
Mean Temperature 44 °F -  
Max Temperature 52 °F 44 °F 72 °F (1956)
Min Temperature 36 °F 29 °F 8 °F (1933)
Degree Days  
Heating Degree Days 20    
Moisture  
Dew Point 44 °F    
Average Humidity 89    
Maximum Humidity 100    
Minimum Humidity 60    
Precipitation  
Precipitation 0.00 in - - ()
Sea Level Pressure  
Sea Level Pressure 29.86 in    
Wind  
Wind Speed 6 mph (SSW)    
Max Wind Speed 12 mph    
Max Gust Speed 16 mph    
Visibility 9 miles    
Events Rain    
Averages and records for this station are not official NWS values.
T = Trace of Precipitation, MM = Missing Value Source: NWS Daily Summary

Daily Weather History Graph

Daily Weather History Graph

Search for Another Location

Airport or City:

Trip Planner

Search our weather history database for the weather conditions in past years. The results will help you decide how hot, cold, wet, or windy it might be!

Date:

Astronomy

Nov. 16, 2011 Rise Set
Actual Time 6:57 AM EST 4:42 PM EST
Civil Twilight 6:27 AM EST 5:13 PM EST
Nautical Twilight 5:53 AM EST 5:47 PM EST
Astronomical Twilight 5:20 AM EST 6:20 PM EST
Moon 9:55 PM EST (11/16) 11:32 AM EST (11/16)
Length of Visible Light 10h 45m
Length of Day
9h 45m
Waning Gibbous, 70% of the Moon is Illuminated
Nov 16
Waning Gibbous
Nov 18
Last Quarter
Nov 25
New
Dec 2
First Quarter
Dec 10
Full

Hourly Weather History & Observations

Time (EST) Temp. Windchill Dew Point Humidity Pressure Visibility Wind Dir Wind Speed Gust Speed Precip Events Conditions
12:56 AM 45.9 °F 42.9 °F 43.0 °F 90% 29.93 in 10.0 mi SSE 5.8 mph - N/A   Clear
1:56 AM 45.0 °F 41.8 °F 43.0 °F 93% 29.92 in 10.0 mi SSE 5.8 mph - N/A   Clear
3:56 AM 45.0 °F 41.8 °F 43.0 °F 93% 29.89 in 10.0 mi SE 5.8 mph - N/A   Clear
4:56 AM 45.9 °F 42.9 °F 43.9 °F 93% 29.90 in 10.0 mi SSE 5.8 mph - N/A   Overcast
5:56 AM 45.9 °F 42.3 °F 43.9 °F 93% 29.89 in 10.0 mi South 6.9 mph - N/A   Overcast
6:22 AM 46.4 °F 42.9 °F 44.6 °F 93% 29.87 in 10.0 mi SSE 6.9 mph - N/A   Overcast
6:56 AM 46.9 °F - 45.0 °F 93% 29.90 in 10.0 mi SSE 5.8 mph - N/A   Mostly Cloudy
7:56 AM 47.8 °F - 45.9 °F 93% 29.90 in 10.0 mi SSE 5.8 mph - N/A   Overcast
8:56 AM 50.0 °F - 47.8 °F 92% 29.86 in 7.0 mi SSE 8.1 mph - 0.00 in   Overcast
9:56 AM 50.0 °F - 47.8 °F 92% 29.86 in 4.0 mi SSE 8.1 mph - 0.00 in Rain Light Rain Showers
10:56 AM 50.9 °F - 48.9 °F 93% 29.85 in 10.0 mi SSE 6.9 mph - 0.00 in   Overcast
11:56 AM 52.0 °F - 50.0 °F 93% 29.81 in 10.0 mi South 8.1 mph - N/A   Overcast
12:56 PM 52.0 °F - 48.9 °F 89% 29.80 in 10.0 mi South 5.8 mph - 0.00 in Rain Light Rain
1:56 PM 50.9 °F - 50.0 °F 97% 29.80 in 5.0 mi SSW 5.8 mph - 0.00 in Rain Light Rain
2:56 PM 50.9 °F - 50.9 °F 100% 29.80 in 4.0 mi WSW 4.6 mph - 0.00 in Rain Light Rain
3:56 PM 50.0 °F - 47.8 °F 92% 29.80 in 10.0 mi West 4.6 mph - 0.00 in Rain Light Rain
4:56 PM 48.9 °F - 46.9 °F 93% 29.80 in 10.0 mi Calm Calm - 0.00 in Rain Light Rain
5:56 PM 48.9 °F - 46.9 °F 93% 29.83 in 10.0 mi West 3.5 mph - 0.00 in   Overcast
6:56 PM 48.9 °F - 45.9 °F 89% 29.85 in 10.0 mi NW 8.1 mph - 0.00 in   Mostly Cloudy
7:26 PM 48.2 °F - 44.6 °F 87% 29.83 in 10.0 mi NW 9.2 mph 16.1 mph N/A   Mostly Cloudy
7:56 PM 46.9 °F - 43.9 °F 89% 29.86 in 10.0 mi WNW 9.2 mph - N/A   Overcast
8:56 PM 43.9 °F 37.9 °F 36.9 °F 76% 29.87 in 10.0 mi NNW 11.5 mph - N/A   Mostly Cloudy
10:56 PM 37.9 °F 32.1 °F 25.2 °F 60% 29.91 in 10.0 mi NW 8.1 mph - N/A   Clear
11:56 PM 36.9 °F 29.6 °F 28.0 °F 70% 29.92 in 10.0 mi NW 10.4 mph - N/A   Clear